Capitol Logistics 1146


LIRF
Leonardo da Vinci International Airport
Rome, IT
EBLG
Liège Airport
Liege, BE

Activity Log

Date Flight Route Aircraft Duration
11/13/2019 CPX746 Not Available B738 2h 12m

Route Details

Aircraft Information
Primary: Boeing 737-800BCF
Backup: Not Available
Route Data
Distance: 601nm
Sched. Duration: 1h 55m
Avg. Duration: 2h 12m (+58m)
Times Flown: 1
Recm'd Route: Not Available
Planned Altitude: 36,000ft
Origin Wx: LIRF 030250Z 04003KT CAVOK 13/12 Q1011 NOSIG
Dest. Wx: EBLG 030250Z 25003KT CAVOK 14/08 Q1009 NOSIG
Notes:

Financial History
Total Freight: 15,840lbs
Average Load: 15,840lbs/flt
Fuel Used: 8,500lbs
Avg. Fuel Used: 8,500lbs/flt
Fuel Expense: $7,565
Avg. Fuel Expense: $7,565
Avg. Fuel Cost: $0.89/lbs
Total Gross Income: $34,848
Pilot Pay: $239
Total Expenses: $3,816
Total Revenue: $22,893
Average Revenue: $34,848.00